Location: Cartignies
(50.0929°N, 3.8447°E)
Time: 15:03:34
(UTC+00:00)

In-Cosmos 22 - Pass Details

Date: 12 January 2026
Orbit: 784 x 874 km, 81.2° (Epoch: 16 February)

Event Time Altitude Azimuth Distance (km) Brightness Sun altitude
Rises 16:29:32 0° 177° (S) 3,354 7.7 -4.0°
Reaches altitude 10° 16:31:55 10° 174° (S) 2,439 6.9 -4.3°
Maximum altitude 16:37:21 59° 96° (E) 981 4.3 -5.1°
Drops below altitude 10° 16:42:56 10° 19° (NNE) 2,511 6.3 -5.9°
Sets 16:45:25 0° 15° (NNE) 3,462 7.0 -6.2°
